Location: *
(51.5000°N, 0.1100°W)
Time: 16:00:47
(UTC+00:00)

Meteor 2-20 - Pass Details

Date: 25 May 2024
Orbit: 939 x 957 km, 82.5° (Epoch: 16 June)

Event Time Altitude Azimuth Distance (km) Brightness Sun altitude
Rises 00:21:44 0° 348° (NNW) 3,642 8.9 -17.3°
Reaches altitude 10° 00:24:14 10° 348° (NNW) 2,695 7.9 -17.3°
Maximum altitude 00:30:24 80° 262° (W) 977 4.4 -17.1°
Enters shadow 00:34:03 26° 179° (S) 1,777 5.3 -17.0°
